This is the latest recevied weather packets stored in our database for station/object WB4MOZ-3. If no packets are shown the sender has not sent any weather packets the latest 10 day(s).
| Time | Temp. | Humidity | Pressure | Rain* | Wind** | Luminosity | Snow |
|---|---|---|---|---|---|---|---|
| 1777414059 | 28.89° C | 58% | 1015.3 hPa | 0 mm | - | - | - |
| 1777413759 | 28.89° C | 58% | 1015.2 hPa | 0 mm | - | - | - |
| 1777413459 | 28.89° C | 58% | 1015.3 hPa | 0 mm | - | - | - |
| 1777413159 | 29.44° C | 56% | 1015.2 hPa | 0 mm | - | - | - |
| 1777412859 | 29.44° C | 56% | 1015.3 hPa | 0 mm | - | - | - |
| 1777412559 | 29.44° C | 55% | 1015.3 hPa | 0 mm | - | - | - |
| 1777412259 | 29.44° C | 54% | 1015.2 hPa | 0 mm | - | - | - |
| 1777411659 | 29.44° C | 51% | 1015.2 hPa | 0 mm | - | - | - |
| 1777411362 | 29.44° C | 53% | 1015.1 hPa | 0 mm | - | - | - |
| 1777410759 | 30° C | 54% | 1015 hPa | 0 mm | - | - | - |
| 1777410459 | 30° C | 54% | 1015 hPa | 0 mm | - | - | - |
| 1777410159 | 30.56° C | 54% | 1015 hPa | 0 mm | - | - | - |
| 1777409859 | 30.56° C | 54% | 1015 hPa | 0 mm | - | - | - |
| 1777409559 | 30.56° C | 54% | 1015 hPa | 0 mm | - | - | - |
| 1777408959 | 31.11° C | 54% | 1015 hPa | 0 mm | - | - | - |
| 1777408659 | 31.11° C | 54% | 1015 hPa | 0 mm | - | - | - |
| 1777408361 | 30.56° C | 53% | 1015.1 hPa | 0 mm | - | - | - |
| 1777408059 | 31.11° C | 53% | 1015.1 hPa | 0 mm | - | - | - |
| 1777407759 | 31.67° C | 53% | 1015.2 hPa | 0 mm | - | - | - |
| 1777407159 | 31.67° C | 53% | 1015.3 hPa | 0 mm | - | - | - |
| 1777406859 | 31.67° C | 52% | 1015.4 hPa | 0 mm | - | - | - |
| 1777406259 | 31.67° C | 51% | 1015.6 hPa | 0 mm | - | - | - |
| 1777405959 | 32.22° C | 51% | 1015.6 hPa | 0 mm | - | - | - |
| 1777405659 | 32.22° C | 51% | 1015.6 hPa | 0 mm | - | - | - |
| 1777405359 | 32.22° C | 51% | 1015.7 hPa | 0 mm | - | - | - |
* Rain latest hour (hover to see other rain measurements)
** Current wind speed in m/s (hover to see current wind gust speed)